Valparaiso, IN

2:13 PM CST on December 08, 2016 (GMT -0600)
Porter County Municipal

Weather History for KVPZ - November, 2014

Change the Weather History Date:

Saturday, November 29, 2014

  Actual Average Record
Temperature  
Mean Temperature 41 °F 34 °F  
Max Temperature 52 °F 41 °F 67 °F (1998)
Min Temperature 30 °F 27 °F 19 °F (2007)
Degree Days  
Heating Degree Days 24 31  
Month to date heating degree days 907 696  
Since 1 July heating degree days 1481 1226  
Cooling Degree Days 0 0  
Month to date cooling degree days 0 0  
Year to date cooling degree days 611 713  
Moisture  
Dew Point 37 °F    
Average Humidity 79    
Maximum Humidity 90    
Minimum Humidity 64    
Precipitation  
Precipitation 0.00 in 0.10 in 0.55 in (2001)
Month to date precipitation 1.86 3.23  
Year to date precipitation 37.82 35.23  
Sea Level Pressure  
Sea Level Pressure 29.75 in    
Wind  
Wind Speed 13 mph (South)    
Max Wind Speed 23 mph    
Max Gust Speed 35 mph    
Visibility 10 miles    
Events      
T = Trace of Precipitation, MM = Missing Value Source: NWS Daily Summary

Daily Weather History Graph

Daily Weather History Graph

Search for Another Location

Airport or City:

Trip Planner

Search our weather history database for the weather conditions in past years. The results will help you decide how hot, cold, wet, or windy it might be!

Date:

Astronomy

Nov. 29, 2014 Rise Set
Actual Time 6:52 AM CST 4:19 PM CST
Civil Twilight 6:22 AM CST 4:50 PM CST
Nautical Twilight 5:47 AM CST 5:24 PM CST
Astronomical Twilight 5:14 AM CST 5:58 PM CST
Moon 12:18 PM CST (11/29) No Moon Set
Length of Visible Light 10h 28m
Length of Day
9h 27m
First Quarter, 54% of the Moon is Illuminated
Nov 29
First Quarter
Dec 6
Full
Dec 14
Last Quarter
Dec 21
New
Dec 28
First Quarter

Hourly Weather History & Observations

Time (CST) Temp. Windchill Dew Point Humidity Pressure Visibility Wind Dir Wind Speed Gust Speed Precip Events Conditions
12:56 AM 30.0 °F 23.2 °F 24.1 °F 79% 29.94 in 10.0 mi SE 6.9 mph - N/A   Clear
1:56 AM 30.0 °F 21.1 °F 24.1 °F 79% 29.93 in 10.0 mi SSE 10.4 mph - N/A   Clear
2:56 AM 30.0 °F 22.4 °F 24.1 °F 79% 29.89 in 10.0 mi SSE 8.1 mph - N/A   Clear
3:56 AM 30.0 °F 22.4 °F 24.1 °F 79% 29.86 in 10.0 mi SSE 8.1 mph - N/A   Clear
4:56 AM 30.9 °F 23.5 °F 25.0 °F 79% 29.86 in 10.0 mi SSE 8.1 mph - N/A   Clear
5:56 AM 30.9 °F 23.5 °F 25.0 °F 79% 29.84 in 10.0 mi SSE 8.1 mph - N/A   Clear
6:56 AM 32.0 °F 23.6 °F 26.1 °F 79% 29.83 in 10.0 mi SSE 10.4 mph - N/A   Clear
7:56 AM 33.1 °F 24.9 °F 27.0 °F 78% 29.82 in 10.0 mi SSE 10.4 mph - N/A   Clear
8:56 AM 37.0 °F 29.3 °F 28.9 °F 73% 29.81 in 10.0 mi South 11.5 mph - N/A   Clear
9:56 AM 42.1 °F 35.2 °F 32.0 °F 67% 29.80 in 10.0 mi South 12.7 mph 23.0 mph N/A   Clear
10:56 AM 46.0 °F 39.3 °F 35.1 °F 66% 29.75 in 10.0 mi South 16.1 mph 23.0 mph N/A   Clear
11:56 AM 48.9 °F - 37.0 °F 64% 29.72 in 10.0 mi SSW 15.0 mph - N/A   Clear
12:56 PM 51.1 °F - 39.9 °F 66% 29.68 in 10.0 mi SSW 24.2 mph 32.2 mph N/A   Clear
1:56 PM 51.1 °F - 41.0 °F 68% 29.68 in 10.0 mi SSW 18.4 mph 27.6 mph N/A   Clear
2:56 PM 50.0 °F - 42.1 °F 74% 29.69 in 10.0 mi South 17.3 mph 26.5 mph N/A   Scattered Clouds
3:07 PM 48.9 °F - 42.1 °F 77% 29.67 in 10.0 mi South 17.3 mph 26.5 mph N/A   Mostly Cloudy
3:51 PM 48.2 °F - 42.8 °F 82% 29.67 in 10.0 mi SSW 20.7 mph 31.1 mph N/A   Overcast
3:56 PM 48.9 °F - 43.0 °F 80% 29.69 in 10.0 mi SSW 20.7 mph 31.1 mph N/A   Overcast
4:56 PM 48.9 °F - 44.1 °F 83% 29.68 in 10.0 mi SSW 16.1 mph 28.8 mph N/A   Overcast
5:56 PM 50.0 °F - 45.0 °F 83% 29.68 in 10.0 mi SSW 17.3 mph 28.8 mph N/A   Overcast
6:56 PM 50.0 °F - 45.0 °F 83% 29.70 in 10.0 mi SSW 16.1 mph 26.5 mph N/A   Overcast
7:56 PM 50.0 °F - 45.0 °F 83% 29.70 in 10.0 mi SSW 13.8 mph 20.7 mph N/A   Overcast
8:56 PM 50.0 °F - 46.0 °F 86% 29.71 in 10.0 mi SSW 11.5 mph - N/A   Overcast
9:16 PM 50.0 °F - 46.0 °F 86% 29.69 in 9.0 mi SSW 11.5 mph - N/A   Overcast
9:48 PM 48.9 °F - 46.0 °F 90% 29.70 in 9.0 mi SSW 11.5 mph - N/A   Overcast
9:56 PM 48.9 °F - 46.0 °F 90% 29.71 in 9.0 mi SSW 12.7 mph - N/A   Overcast
10:07 PM 50.0 °F - 46.0 °F 86% 29.70 in 9.0 mi SSW 11.5 mph - N/A   Overcast
10:56 PM 51.1 °F - 46.9 °F 86% 29.70 in 9.0 mi SSW 13.8 mph 21.9 mph N/A   Overcast
11:56 PM 52.0 °F - 48.0 °F 86% 29.70 in 10.0 mi SSW 13.8 mph - N/A   Overcast